Regional Weather Roundup
Issued by NWS New Orleans/Baton Rouge, LA

Home | Current Version | Previous Version | Graphics & Text | Print | Product List | Glossary On
Versions: 1 2 3 4 5 6 7 8 9 10 11 12 13 14 15 16 17 18 19 20 21 22 23 24 25 26 27 28 29 30 31 32 33 34 35 36 37 38 39 40 41 42 43 44 45 46 47 48 49 50
376
ASUS44 KLIX 251510
RWRLIX
NEW ORLEANS REGIONAL WEATHER ROUNDUP
NATIONAL WEATHER SERVICE NEW ORLEANS LA
1000 AM CDT SAT OCT 25 2014

NOTE: "FAIR" INDICATES FEW OR NO CLOUDS BELOW 12,000 FEET WITH NO
      SIGNIFICANT WEATHER AND/OR OBSTRUCTIONS TO VISIBILITY.
      SKY/WX - SKY CONDITION AND SIGNIFICANT WEATHER.
      TMP - AIR TEMPERATURE.     DP    - DEWPOINT TEMPERATURE.
      RH  - RELATIVE HUMIDITY.   PRES  - PRESSURE.
      HI  - HEAT INDEX.          WCI   - WIND CHILL INDEX.

*  THESE STATIONS ARE NOT NWS OR FAA STATIONS AND ARE NOT UNDER
   NWS QUALITY CONTROL.

LAZ038-040-048-061>063-065>067-069-251600-
SOUTHEAST LOUISIANA

CITY           SKY/WX    TMP DP  RH WIND       PRES   REMARKS
N.O. AUDUBON     N/A     73  57  57 MISG        N/A
N.O. INTL ARPT SUNNY     70  53  54 NE9       30.16R
N.O. LAKEFRONT SUNNY     67  53  61 NE6       30.17R
N.O. DOWNTOWN*   N/A     68  48  49 NE7       30.17S
SLIDELL        SUNNY     66  53  63 N6        30.16R
BATON ROUGE    SUNNY     66  51  58 NE6       30.18R
BOOTHVILLE     SUNNY     71  55  56 N9        30.15R
BELLE CHASSE   MOSUNNY   69  52  54 NE7       30.16R
BOGALUSA*        N/A     66  51  59 NE7       30.19R
NEW ROADS*       N/A     63  52  66 CALM      30.18S
GONZALES*        N/A     65  53  63 NE6       30.18R
HAMMOND*       SUNNY     68  50  52 N5        30.18S
HOUMA*         NOT AVBL
PORT FOURCHON* SUNNY     70  54  56 NE12      30.18S

$$

MSZ070-080>082-251600-
SOUTHERN MISSISSIPPI

CITY           SKY/WX    TMP DP  RH WIND       PRES   REMARKS
MCCOMB         SUNNY     68  49  50 N6        30.18R
GULFPORT       SUNNY     67  51  56 N8        30.15S
BILOXI         SUNNY     67  50  55 NE7       30.15R
PASCAGOULA     SUNNY     66  51  58 N7        30.15R
STENNIS ARPT*  SUNNY     64  52  63 CALM      30.16S

$$

COASTAL OBSERVATIONS
LAKE AND NEARSHORE STATIONS

STATION/POSITION TIME  TEMP    WIND        PRES    WAVE
                       AIR SEA DIR/SP/G            HT/PER
                 (UTC) (F)     (DEG/KT/KT) (MB)    (FT/S)
PASCAGOULA       1500   66      20/  8/ 11 1020.3
WAVELAND YACHT   1500   63      10/  3/  5 1020.3
GRAND ISLE       1500   69 71   40/  8/ 10 1021.4
SOUTHWEST PASS   1500   72 80              1020.8
NEW CANAL        1500   65 69   50/  8/  9 1021.8
SHELL BEACH      1500   66 65   30/  9/ 11 1021.0

OFFSHORE STATIONS

STATION/POSITION TIME  TEMP    WIND        PRES    WAVE
                       AIR SEA DIR/SP/G            HT/PER
                 (UTC) (F)     (DEG/KT/KT) (MB)    (FT/S)
64 S DAUPHIN ISL 1358   72 78   20/ 16/ 17 1020.1    3/ 5

$$




USA.gov is the U.S. government's official web portal to all federal, state and local government web resources and services.